Regional Weather Roundup
Issued by NWS Northern Indiana

Home | Current Version | Previous Version | Graphics & Text | Print | Product List | Glossary On
Versions: 1 2 3 4 5 6 7 8 9 10 11 12 13 14 15 16 17 18 19 20 21 22 23 24 25 26 27 28 29 30 31 32 33 34 35 36 37 38 39 40 41 42 43 44 45 46 47 48 49 50
000
ASUS43 KIWX 041900
RWRIWX

KIWX WEATHER ROUNDUP
NATIONAL WEATHER SERVICE NORTHERN INDIANA
300 PM EDT TUE AUG 04 2015

NOTE: "FAIR" INDICATES FEW OR NO CLOUDS BELOW 12,000 FEET WITH NO
SIGNIFICANT WEATHER AND/OR OBSTRUCTIONS TO VISIBILITY.

* THESE STATIONS ARE NOT UNDER NWS QUALITY CONTROL. THEY ALSO MAY NOT
  REPORT WEATHER SUCH AS PRECIPITATION OR FOG.

INZ001>027-042000-
NORTHERN INDIANA

CITY           SKY/WX    TMP DP  RH WIND       PRES   REMARKS
GARY*          PTSUNNY   82  52  34 W9G23     29.98R
SOUTH BEND     MOSUNNY   79  49  34 NW13      29.99R
ELKHART*       SUNNY     79  50  36 NW12      29.98S
GOSHEN         MOSUNNY   78  58  49 W9G18     29.97S
ANGOLA*        MOSUNNY   81  57  44 NW10      29.97F
FORT WAYNE     PTSUNNY   79  58  48 W13G21    29.98S

$$
INZ028>050-042000-
CENTRAL INDIANA

CITY           SKY/WX    TMP DP  RH WIND       PRES   REMARKS
LAFAYETTE      PTSUNNY   79  59  50 W15       29.99S
KOKOMO*        PTSUNNY   79  59  50 NW12      29.99S
MUNCIE*        MOSUNNY   78  58  49 NW10      29.99S
INDIANAPOLIS   PTSUNNY   81  54  39 VRB7      29.99S

$$
MIZ043>046-050>051-056>058-064>065-071>073-077>080-042000-
SOUTHWEST LOWER MICHIGAN

CITY           SKY/WX    TMP DP  RH WIND       PRES   REMARKS
BATTLE CREEK     N/A    N/A N/A N/A MISG      29.96F
BENTON HARBOR  MOSUNNY   78  57  48 W13       29.98R
COLDWATER*     PTSUNNY   76  54  44 NW13      29.96F
HILLSDALE*     MOSUNNY   78  55  45 W14G20    29.97S
HOLLAND        MOSUNNY   77  58  51 W10G17    29.97R
GRAND RAPIDS   PTSUNNY   78  53  41 SW20G26   29.95R
KALAMAZOO      MOSUNNY   80  53  39 W14G22    29.96S
STURGIS*       PTSUNNY   77  55  47 W10       29.96F
THREE RIVERS*  FAIR      76  54  45 NW10      29.97S

$$
OHZ001>008-015>018-024>025-042000-
NORTHWEST OHIO

CITY           SKY/WX    TMP DP  RH WIND       PRES   REMARKS
DEFIANCE       MOSUNNY   83  57  41 W8        29.95F
FINDLAY        MOSUNNY   81  56  42 W13       29.95F
TOLEDO EXPRESS PTSUNNY   79  56  45 W12       29.94F
TOLEDO METCALF MOSUNNY   80  56  43 NW15      29.95S
LIMA           MOSUNNY   79  56  45 W9        29.98S

$$
AND FOR LAKE MICHIGAN COASTAL AND OPEN LAKE BUOY OBSERVATIONS

STATION/POSITION TEMP    WIND        PRES    VSBY  WAVE
                 AIR SEA DIR/SP/G                  HT/PER
                 (F)     (DEG/KT/KT) (MB)    (MI)  (FT/S)
CALUMET HARBOR    79     230/  4/  9   N/A
MICHIGAN CITY     74     230/  3/  3   N/A
BURNS HARBOR      75      20/  3/  4 1015.2F
SAINT JOSEPH      77     220/  7/  8 1015.2F
4 MI NW BRIDGMAN  72 74  280/  6/  6   N/A           1/ 3
MICHIGAN CITY     74 75  280/  2/  4   N/A           1/ 3

$$
&&


USA.gov is the U.S. government's official web portal to all federal, state and local government web resources and services.